Regional Weather Roundup
Issued by NWS Grand Forks, ND

Home | Current Version | Previous Version | Text Only | Print | Product List | Glossary On
Versions: 1 2 3 4 5 6 7 8 9 10 11 12 13 14 15 16 17 18 19 20 21 22 23 24 25 26 27 28 29 30 31 32 33 34 35 36 37 38 39 40 41 42 43 44 45 46 47 48 49 50
000
ASUS43 KFGF 020010
RWRFGF
PRAIRIE TO PINES  WEATHER ROUNDUP
NATIONAL WEATHER SERVICE EASTERN NORTH DAKOTA/GRAND FORKS ND
700 PM CDT SAT AUG 01 2015

 **SATELLITE DATA USED TO AUGMENT SKY COVER AT AUTOMATED STATIONS**
 *****  WEATHER ACROSS EASTERN NORTH DAKOTA  *****

CITY           SKY/WX    TMP DP  RH WIND       PRES   REMARKS
GRAND FORKS    MOSUNNY   84  61  45 S8        29.71F
6HR MIN TEMP:  81; 6HR MAX TEMP:  86;

GRAND FRKS AFB SUNNY     84  63  49 SW9       29.72F
DEVILS LAKE    SUNNY     86  54  32 S6        29.74F
6HR MIN TEMP:  81; 6HR MAX TEMP:  88;

FARGO          SUNNY     85  63  47 S6        29.73F
WAHPETON ARPT  CLEAR     84  64  51 S8        29.74F
$$

 ***** WEATHER ACROSS CENTRAL AND WESTERN NORTH DAKOTA  *****

CITY           SKY/WX    TMP DP  RH WIND       PRES   REMARKS
BISMARCK       SUNNY     90  55  30 SW5       29.78F
6HR MIN TEMP:  84; 6HR MAX TEMP:  92;

MINOT          SUNNY     88  51  28 S12       29.71F
6HR MIN TEMP:  85; 6HR MAX TEMP:  90;

JAMESTOWN      SUNNY     85  64  49 S3        29.75F
6HR MIN TEMP:  81; 6HR MAX TEMP:  86;

MINOT AFB      SUNNY     88  56  33 S8        29.70F
GARRISON         N/A     82  60  47 SE7       29.75F
WILLISTON      SUNNY     97  34  11 NW21G32   29.73R HX  91
6HR MIN TEMP:  86; 6HR MAX TEMP: 100;

DICKINSON      SUNNY     92  40  16 W13       29.77F
6HR MIN TEMP:  87; 6HR MAX TEMP:  94;

HETTINGER      SUNNY     93  36  13 SW7       29.84F
6HR MIN TEMP:  90; 6HR MAX TEMP:  95;

$$

 *****  OTHER AIRPORT OBSERVATIONS IN OUR AREA  *****

CITY           SKY/WX    TMP DP  RH WIND       PRES   REMARKS
WALHALLA       FAIR      84  61  45 MISG      29.70F
GRAFTON AIRPOR FAIR      84  61  45 W7        29.72F
VALLEY CITY AR FAIR      84  64  51 CALM      29.75F
CANDO          NOT AVBL
CAVALIER APRT  FAIR      82  59  44 SW6       29.70F
GWINNER        FAIR      88  70  55 NE5       29.75F HX  92
SHEYENNE NWR     N/A     86  69  56 SE2       29.95  HX  90
ROLLA            N/A     81  63  54 NW3       29.77F
 ***** THE ABOVE OBSERVATIONS ARE NON NWS ARE NOT QUALITY
       CONTROLLED AND MAY MIS-REPORT RAIN FOR SNOW...
$$

  *****  WEATHER ACROSS NORTHERN MINNESOTA  *****

CITY           SKY/WX    TMP DP  RH WIND       PRES   REMARKS
FLAG ISLAND    MOSUNNY   79  54  41 W13G22    29.69S
WARROAD        MOSUNNY   79  63  57 W8        29.72F
ROSEAU         MOSUNNY   79  63  57 SW7       29.72F
HALLOCK        PTSUNNY   82  57  42 SW8       29.70F
THF RVR FALLS  SUNNY     81  63  54 SW7       29.75F
6HR MIN TEMP:  77; 6HR MAX TEMP:  82;

BAUDETTE       MOSUNNY   78  56  46 W8        29.72F
6HR MIN TEMP:  78; 6HR MAX TEMP:  81;

WASKISH        PTSUNNY   73  63  68 SW5       29.74F
CROOKSTON      SUNNY     82  61  47 SW7       29.74F
STEPHEN NDAWN    N/A     84  61  45 SW7         N/A
GREENBUSH NDAW   N/A     82  57  42 SW8         N/A
$$
  *****  WEATHER ACROSS CENTRAL AND WEST MINNESOTA  *****

CITY           SKY/WX    TMP DP  RH WIND       PRES   REMARKS
FOSSTON        SUNNY     82  61  47 SW6       29.77F
BEMIDJI        MOSUNNY   79  57  45 SW7       29.77F
PARK RAPIDS    SUNNY     82  57  42 S8        29.78F
6HR MIN TEMP:  80; 6HR MAX TEMP:  84;

ELBOW LAKE     FAIR      83  71  67 SE9       29.76F
WADENA         MOSUNNY   81  61  50 S7        29.78F
DETROIT LAKES  SUNNY     82  59  44 SW9       29.79F
MOORHEAD       SUNNY     82  64  54 SE3       29.75F
FERGUS FALLS   SUNNY     82  68  61 S7        29.74F
MORRIS MN      SUNNY     82  68  61 S7        29.76F
STAPLES        MOSUNNY   81  61  50 S6        29.79F
$$
  *****  WEATHER ELSEWHERE ACROSS MINNESOTA  *****

CITY           SKY/WX    TMP DP  RH WIND       PRES   REMARKS
DULUTH         MOSUNNY   78  54  43 W10       29.79F
6HR MIN TEMP:  77; 6HR MAX TEMP:  82;

INTRNTL FALLS  MOSUNNY   77  54  44 W9        29.71F
6HR MIN TEMP:  77; 6HR MAX TEMP:  81;

ELY            SUNNY     75  48  38 W9        29.75F
CLOQUET        MOSUNNY   79  52  38 SW9       29.80F
WHEATON        MOSUNNY   84  70  61 CALM      29.75F
BRAINERD       MOSUNNY   79  57  46 S9        29.80F
6HR MIN TEMP:  78; 6HR MAX TEMP:  83;

HIBBING        SUNNY     79  51  37 SW9       29.77F
6HR MIN TEMP:  77; 6HR MAX TEMP:  81;

ALEXANDRIA     SUNNY     82  69  64 S9        29.80F
6HR MIN TEMP:  79; 6HR MAX TEMP:  83;

SAINT CLOUD    SUNNY     82  65  56 S12       29.79F
6HR MIN TEMP:  81; 6HR MAX TEMP:  85;

MINNEAPOLIS    MOSUNNY   85  64  49 SW9       29.80F
6HR MIN TEMP:  82; 6HR MAX TEMP:  86;

$$

  *****  WEATHER ACROSS SOUTH DAKOTA  *****

CITY           SKY/WX    TMP DP  RH WIND       PRES   REMARKS
SIOUX FALLS    MOSUNNY   83  60  45 SW12      29.85F
6HR MIN TEMP:  78; 6HR MAX TEMP:  84;

BROOKINGS      SUNNY     81  63  54 SW8       29.85F
WATERTOWN      SUNNY     84  64  50 SW13      29.80F
6HR MIN TEMP:  80; 6HR MAX TEMP:  87; 6HR PCP: TRACE;

HURON          MOSUNNY   88  63  43 W13       29.78F
6HR MIN TEMP:  86; 6HR MAX TEMP:  90;

SISSETON         N/A     87  66  49 SW8       29.73F
ABERDEEN       SUNNY     88  72  58 S12       29.73F HX  94
6HR MIN TEMP:  84; 6HR MAX TEMP:  93;

MITCHELL       SUNNY     87  64  46 S9        29.82F
PIERRE         MOSUNNY   92  60  34 SW14      29.79F HX  91
6HR MIN TEMP:  88; 6HR MAX TEMP:  95;

MOBRIDGE       SUNNY     93  53  25 NW9       29.77F HX  90
RAPID CITY     SUNNY     91  50  24 SW5       29.93F
6HR MIN TEMP:  85; 6HR MAX TEMP:  93;

$$

  *****  SOME WEATHER IN NEARBY STATES *****

CITY           SKY/WX    TMP DP  RH WIND       PRES   REMARKS
GLASGOW MT     SUNNY     93  41  16 N22       29.79S
6HR MIN TEMP:  89; 6HR MAX TEMP:  98;

GREAT FALLS MT SUNNY     96  17   5 NW13      29.91F
6HR MIN TEMP:  90; 6HR MAX TEMP:  97;

CHEYENNE WY    PTSUNNY   84  42  22 E13       30.13F
6HR MIN TEMP:  82; 6HR MAX TEMP:  90;

SCOTTSBLUFF NE PTSUNNY   85  60  42 E17       29.98R
6HR MIN TEMP:  83; 6HR MAX TEMP:  96; 6HR PCP: TRACE;

OMAHA NE       MOSUNNY   84  68  58 S12       29.90F
6HR MIN TEMP:  81; 6HR MAX TEMP:  85;

DES MOINES IA  MOSUNNY   87  70  56 SW8       29.91F HX  92
6HR MIN TEMP:  84; 6HR MAX TEMP:  88;

DAVENPORT IA   CLOUDY    81  70  69 SW6       29.93F
6HR MIN TEMP:  81; 6HR MAX TEMP:  85;

CHICAGO IL     PTSUNNY   83  61  47 SW16      29.89F
6HR MIN TEMP:  82; 6HR MAX TEMP:  87;

EAU CLAIRE WI  SUNNY     80  60  50 SW8       29.82F
6HR MIN TEMP:  80; 6HR MAX TEMP:  84;

LA CROSSE WI   SUNNY     85  63  47 W6        29.85F
6HR MIN TEMP:  80; 6HR MAX TEMP:  87;

$$

  *****  SOME NATIONAL WEATHER *****

CITY           SKY/WX    TMP DP  RH WIND       PRES   REMARKS
LA GUARDIA NY  PTCLDY    84  56  38 NW14G20   29.79R
6HR MIN TEMP:  83; 6HR MAX TEMP:  90;

RALEIGH NC     PTCLDY    82  64  54 CALM      29.89R
6HR MIN TEMP:  82; 6HR MAX TEMP:  93;

ATLANTA GA     PTCLDY    86  63  45 E6        29.92S
6HR MIN TEMP:  82; 6HR MAX TEMP:  89;

NEW ORLEANS LA MOSUNNY   91  65  41 NE12      29.87S HX  93
6HR MIN TEMP:  88; 6HR MAX TEMP:  93;

OKLAHOMA CITY  PTSUNNY   87  66  49 SE9       29.97F
6HR MIN TEMP:  87; 6HR MAX TEMP:  90;

ALBUQUERQUE NM PTSUNNY   87  47  24 W6        30.11F
6HR MIN TEMP:  79; 6HR MAX TEMP:  88;

SALT LAKE CITY PTSUNNY   93  31  11 NW10      30.00F
6HR MIN TEMP:  87; 6HR MAX TEMP:  95;

LOS ANGELES CA MOSUNNY   75  65  70 W12       29.90F
6HR MIN TEMP:  72; 6HR MAX TEMP:  75;




USA.gov is the U.S. government's official web portal to all federal, state and local government web resources and services.